Tracking 25953 objects as of 16-Aug-2022
HD Live streaming from Space Station
objects crossing your sky now

STARLINK-3700

Track STARLINK-3700 now!
10-day predictions
STARLINK-3700 is classified as:


NORAD ID: 51956
Int'l Code: 2022-025A
Perigee: 545.5 km
Apogee: 548.3 km
Inclination: 53.2 °
Period: 95.4 minutes
Semi major axis: 6917 km
RCS: Unknown
Launch date: March 9, 2022
Source: United States (US)
Launch site: AIR FORCE EASTERN TEST RANGE (AFETR)
aabbcc
Your satellite tracking list
Your tracking list is empty




NASA's NSSDC Master Catalog

Two Line Element Set (TLE):
1 51956U 22025A   22227.91667824 -.00012818  00000-0 -78856-3 0  9994
2 51956  53.2148 113.0102 0002041  52.4623 221.1811 15.08843972  1305
Source of the keplerian elements: AFSPC